[[{"header":{"parameterUnit":"m.s-1","parameterCategory":1,"la1":30.2991,"la2":30.254,"lo1":-89.0895,"lo2":-89.0444,"dy":0.0017,"dx":0.0017,"nx":28,"ny":28,"refTime":"2024-04-09T09:00:00:Z","depth":0,"parameterNumber":2,"parameterNumberName":"U-component_of_WINDS"},"data":[0,0,0,0,0,0,0,0,0,0,0,0,0,0,0,0,0,0,0,0,0,0,0,0,0,0,0,0,0,0,0,0,0,0,0,0,0,0,0,0,0,0,0,0,0,0,0,0,0,0,0,0,0,0,0,0,0,0,0.4546,0.4544,0,0.4398,0.4396,0.4395,0.4327,0.4327,0.4327,0.4327,0.4169,0.4165,0.4161,0,0,0,0,0,0,0,0,0,0,0,0,0,0.4762,0.4758,0.4546,0.4544,0.4542,0.4398,0.4396,0.4394,0.4327,0.4327,0.4327,0.4327,0.4171,0.4166,0.416,0,0,0,0,0,0,0,0,0,0,0,0,0,0.4646,0.4757,0.4546,0.4491,0.4485,0.4399,0.4396,0.4394,0.4327,0.4327,0.4327,0.4327,0.4172,0.4166,0.416,0.4115,0,0,0.414,0.4137,0,0,0,0,0,0,0,0,0.4653,0.4638,0.4501,0.4495,0.4488,0.4381,0.4414,0.43,0.4327,0.4387,0.4327,0.4327,0.4239,0.4227,0.4199,0.4107,0.4101,0.4139,0.4135,0.4132,0.4131,0,0,0,0,0,0,0,0.4661,0.4644,0.4487,0.4499,0.4491,0.4471,0.4455,0.4392,0.4313,0.4381,0.4376,0.436,0.4235,0.4205,0.4194,0.4098,0.4139,0.4134,0.413,0.4127,0.3959,0.3958,0,0,0,0,0,0,0.4679,0.4652,0.4492,0.4483,0.4573,0.4467,0.4449,0.4415,0.4314,0.4299,0.436,0.4357,0.4216,0.4202,0.4189,0.4127,0.4132,0.4126,0.4123,0.3959,0.3959,0.3958,0,0,0,0,0,0,0.4684,0.4666,0.4498,0.4566,0.4543,0.4464,0.4425,0.4412,0.4382,0.4298,0.4282,0.4344,0.4216,0.4198,0.4133,0.4121,0.4123,0.4117,0.396,0.3959,0.3958,0.4005,0,0,0,0,0,0,0.469,0.4668,0.4652,0.4566,0.454,0.4448,0.4425,0.4409,0.4371,0.4367,0.4279,0.4264,0.4215,0.4143,0.4127,0.4112,0.4112,0.3961,0.396,0.3959,0.4005,0.4006,0.4008,0,0,0,0,0,0.4698,0.467,0.4652,0.4633,0.4519,0.4447,0.4432,0.4377,0.4371,0.4353,0.4298,0.4267,0.4125,0.4137,0.4118,0.4101,0.3961,0.396,0.3959,0.4004,0.4006,0.4008,0,0,0,0,0,0,0.4755,0.4658,0.4636,0.458,0.4523,0.4436,0.4412,0.4382,0.4323,0.4321,0.4253,0.4234,0.4175,0.4131,0.4147,0.405,0.404,0.4035,0.4081,0.4082,0.4084,0.4095,0.4107,0,0,0,0,0,0.4762,0.4714,0.4631,0.4589,0.4562,0.4492,0.4459,0.4422,0.4358,0.4333,0.4274,0.4212,0.4152,0.4115,0.4056,0.3998,0.3976,0.3977,0.3978,0.398,0.3976,0.3938,0.3937,0.3954,0.3954,0.3954,0,0,0.4774,0.4715,0.4689,0.4599,0.455,0.45,0.4472,0.442,0.4381,0.4324,0.426,0.4214,0.414,0.4078,0.4047,0.404,0.3966,0.3978,0.398,0.3975,0.3937,0.3935,0.3934,0.3953,0.3953,0.3953,0,0,0.477,0.4722,0.468,0.4632,0.4559,0.4512,0.4502,0.4419,0.4387,0.4322,0.4277,0.4228,0.4129,0.4078,0.4038,0.4012,0.398,0.3995,0.4002,0.3967,0.3965,0.3964,0.3952,0.3949,0.3991,0.3991,0.3991,0,0.4793,0.4718,0.4663,0.4613,0.4573,0.4521,0.4477,0.4432,0.4342,0.4315,0.4308,0.4181,0.4128,0.4051,0.4045,0.4015,0.3999,0.4004,0.3971,0.3968,0.3966,0.3954,0.395,0.3993,0.3993,0.3993,0.3993,0,0.4749,0.4697,0.4672,0.4589,0.4546,0.45,0.4434,0.4398,0.4364,0.4317,0.4248,0.4182,0.4108,0.4087,0.4053,0.4005,0.4002,0.3984,0.3972,0.3967,0.3954,0.395,0.3996,0.3995,0.3995,0.3994,0,0,0.4777,0.4663,0.4655,0.4615,0.4529,0.4486,0.4436,0.4365,0.4333,0.4273,0.4226,0.4143,0.4124,0.408,0.4039,0.4008,0.3988,0.3993,0.399,0.3992,0.3927,0.394,0.3936,0.3967,0.3966,0.3965,0.3932,0,0.476,0.467,0.4617,0.4547,0.4497,0.4446,0.4401,0.4342,0.4296,0.4244,0.4192,0.4133,0.4115,0.4087,0.4055,0.3998,0.3974,0.3999,0.392,0.3918,0.3939,0.3929,0.3944,0.3916,0.3927,0.3926,0.3926,0,0.4728,0.467,0.4596,0.4513,0.449,0.4451,0.438,0.4333,0.4263,0.4231,0.4181,0.414,0.4081,0.4074,0.399,0.4009,0.3973,0.394,0.3937,0.3926,0.3921,0.3916,0.3906,0.3902,0.3918,0.3918,0.3919,0,0.4754,0.4656,0.4599,0.4566,0.447,0.4443,0.4401,0.4332,0.4291,0.4228,0.4201,0.4132,0.4093,0.4039,0.3979,0.398,0.3899,0.3889,0.3869,0.387,0.3853,0.3855,0.3836,0.3833,0.3834,0.3834,0.3834,0,0.4739,0.4695,0.4608,0.4573,0.452,0.4459,0.4408,0.4361,0.43,0.4251,0.4202,0.4157,0.4082,0.4027,0.3979,0.3915,0.3898,0.3869,0.3856,0.3872,0.3876,0.3847,0.3846,0.3832,0.3833,0.3833,0.3833,0,0.4759,0.47,0.4633,0.4546,0.4523,0.4488,0.4413,0.4374,0.4326,0.4265,0.4247,0.4169,0.4102,0.4037,0.3946,0.3913,0.3848,0.3833,0.3873,0.3865,0.3848,0.385,0.3808,0.3798,0.3805,0.3805,0.3805,0,0.4753,0.4718,0.4628,0.4593,0.4552,0.4497,0.4455,0.4392,0.4351,0.4267,0.4238,0.4167,0.4107,0.4,0.3934,0.3863,0.3844,0.3834,0.3833,0.3849,0.3841,0.3843,0.3838,0.3835,0.3836,0.3836,0.3836,0,0.4748,0.472,0.4664,0.4596,0.4549,0.4492,0.4433,0.4407,0.4332,0.4287,0.4218,0.4171,0.4078,0.4007,0.3928,0.3881,0.3844,0.3837,0.3828,0.3843,0.3867,0.3851,0.3874,0.3838,0.3838,0.3838,0.3838,0.3838,0.4752,0.4718,0.4649,0.4587,0.4536,0.4482,0.4441,0.4387,0.4329,0.425,0.4215,0.4144,0.4072,0.3962,0.3916,0.3857,0.3849,0.3837,0.3833,0.3831,0.3833,0.3878,0.3843,0.3843,0.3842,0.3842,0.3842,0,0.4743,0.4696,0.4639,0.4559,0.4509,0.4482,0.4415,0.4374,0.4313,0.425,0.4192,0.411,0.404,0.3968,0.3893,0.386,0.3841,0.3842,0.3843,0.3832,0.3846,0.386,0.3858,0.3858,0.3858,0.3858,0.3858,0.3858,0.4732,0.4671,0.4635,0.4547,0.4498,0.4431,0.4394,0.4342,0.4291,0.4203,0.4146,0.41,0.4031,0.395,0.3884,0.3864,0.3837,0.3843,0.3818,0.3832,0.3831,0.3831,0.3843,0.3838,0.3838,0.3808,0.3808,0.3808]},{"header":{"parameterUnit":"m.s-1","parameterCategory":1,"la1":30.2991,"la2":30.254,"lo1":-89.0895,"lo2":-89.0444,"dy":0.0017,"dx":0.0017,"nx":28,"ny":28,"refTime":"2024-04-09T09:00:00:Z","depth":0,"parameterNumber":3,"parameterNumberName":"V-component_of_WINDS"},"data":[0,0,0,0,0,0,0,0,0,0,0,0,0,0,0,0,0,0,0,0,0,0,0,0,0,0,0,0,0,0,0,0,0,0,0,0,0,0,0,0,0,0,0,0,0,0,0,0,0,0,0,0,0,0,0,0,0,0,10.2557,10.2561,0,10.2966,10.297,10.2975,10.3072,10.3069,10.3067,10.3064,10.3483,10.3497,10.351,0,0,0,0,0,0,0,0,0,0,0,0,0,10.1861,10.1873,10.2556,10.2561,10.2566,10.2965,10.297,10.2976,10.3073,10.3069,10.3066,10.3063,10.3479,10.3495,10.3511,0,0,0,0,0,0,0,0,0,0,0,0,0,10.2205,10.1877,10.2555,10.2663,10.2676,10.2964,10.2971,10.2978,10.3073,10.3069,10.3065,10.3061,10.3473,10.3493,10.3514,10.3723,0,0,10.3577,10.3586,0,0,0,0,0,0,0,0,10.2186,10.2231,10.2642,10.2656,10.2672,10.2964,10.2879,10.3228,10.3074,10.2923,10.3064,10.3059,10.3314,10.3347,10.3433,10.3743,10.3761,10.3578,10.3591,10.36,10.3606,0,0,0,0,0,0,0,10.2162,10.2214,10.2718,10.2648,10.2666,10.2691,10.2736,10.2946,10.3136,10.2936,10.2944,10.2991,10.3321,10.3413,10.3444,10.3767,10.3578,10.3596,10.3609,10.3617,10.4274,10.4279,0,0,0,0,0,0,10.2119,10.2193,10.2705,10.273,10.2414,10.2707,10.2757,10.2874,10.3134,10.317,10.2994,10.2994,10.338,10.3419,10.3459,10.3725,10.36,10.3619,10.3631,10.4269,10.4275,10.4281,0,0,0,0,0,0,10.2104,10.2164,10.2689,10.2464,10.2533,10.2723,10.2854,10.2884,10.2976,10.3178,10.3213,10.3052,10.3378,10.343,10.3658,10.374,10.3628,10.3647,10.4263,10.4271,10.4278,10.4255,0,0,0,0,0,0,10.2083,10.2158,10.2239,10.2465,10.2545,10.288,10.2859,10.2895,10.3011,10.3015,10.3243,10.3276,10.3379,10.3626,10.3678,10.3767,10.3663,10.4256,10.4266,10.4275,10.425,10.4261,10.4271,0,0,0,0,0,10.2058,10.2215,10.2242,10.2303,10.265,10.2885,10.293,10.3045,10.3017,10.3101,10.3232,10.3269,10.3722,10.3649,10.3708,10.3804,10.4252,10.4263,10.4275,10.4245,10.4259,10.4271,0,0,0,0,0,0,10.1992,10.2247,10.2279,10.2514,10.2677,10.29,10.301,10.3056,10.323,10.3226,10.3361,10.3411,10.3632,10.374,10.3654,10.4022,10.3987,10.401,10.3944,10.3959,10.3969,10.394,10.368,0,0,0,0,0,10.2005,10.2174,10.2387,10.2574,10.2654,10.2818,10.2924,10.2999,10.3173,10.3242,10.3389,10.3557,10.3738,10.3854,10.4031,10.4265,10.4318,10.436,10.4371,10.4379,10.4399,10.4534,10.4557,10.4318,10.4318,10.4318,0,0,10.2033,10.2193,10.2292,10.2565,10.27,10.2874,10.2875,10.3057,10.3188,10.327,10.3496,10.3609,10.3805,10.4038,10.4148,10.4136,10.4476,10.4394,10.4398,10.4415,10.4549,10.4571,10.4591,10.4326,10.4325,10.4323,0,0,10.2175,10.2311,10.2484,10.2619,10.2824,10.2932,10.2973,10.3191,10.327,10.3498,10.3564,10.3721,10.4028,10.4167,10.4278,10.4473,10.4516,10.4527,10.4585,10.4715,10.4734,10.4751,10.4825,10.4849,10.4546,10.4546,10.4546,0,10.2184,10.2448,10.2566,10.2747,10.2867,10.2949,10.3126,10.3252,10.3504,10.3585,10.3567,10.3957,10.4095,10.4363,10.4411,10.4497,10.455,10.4503,10.4722,10.474,10.4758,10.483,10.4857,10.4546,10.4546,10.4546,10.4546,0,10.2451,10.2633,10.2747,10.299,10.3122,10.3299,10.3446,10.3566,10.3629,10.3739,10.3972,10.4141,10.4355,10.4424,10.4487,10.4703,10.4689,10.4694,10.4662,10.4779,10.4849,10.4877,10.4546,10.4546,10.4546,10.4546,0,0,10.2562,10.2869,10.291,10.3022,10.3255,10.3399,10.358,10.3791,10.3892,10.4063,10.4221,10.4481,10.4489,10.4614,10.4693,10.4807,10.4956,10.48,10.4807,10.4826,10.5209,10.5205,10.5234,10.4985,10.499,10.4995,10.5193,0,10.2734,10.3063,10.3176,10.3448,10.362,10.3701,10.3861,10.4021,10.4129,10.4291,10.441,10.4594,10.4588,10.4665,10.4782,10.4913,10.5035,10.49,10.5136,10.5142,10.5086,10.527,10.5267,10.5445,10.5221,10.5225,10.5229,0,10.2979,10.3155,10.3444,10.3659,10.3735,10.3876,10.408,10.4232,10.4417,10.4488,10.4629,10.4701,10.4896,10.485,10.5123,10.5029,10.5132,10.5211,10.5221,10.5249,10.5194,10.5307,10.5505,10.5533,10.5272,10.5269,10.5265,0,10.3035,10.3344,10.3558,10.3652,10.3906,10.4004,10.4114,10.4295,10.4415,10.4593,10.4673,10.487,10.4979,10.5131,10.5255,10.521,10.5519,10.5482,10.5585,10.5582,10.5649,10.5643,10.5869,10.5709,10.5709,10.5708,10.5708,0,10.3217,10.3391,10.3588,10.3719,10.3919,10.4047,10.4241,10.4356,10.4517,10.4674,10.4756,10.4902,10.5055,10.5222,10.532,10.5533,10.5581,10.5645,10.567,10.564,10.5632,10.5711,10.5703,10.5716,10.5714,10.5713,10.5711,0,10.3314,10.3452,10.3691,10.3913,10.3973,10.411,10.4301,10.4433,10.4545,10.4743,10.4797,10.4973,10.5173,10.5312,10.5568,10.5634,10.5866,10.5887,10.5804,10.5817,10.5914,10.5904,10.6201,10.6248,10.6053,10.6054,10.6056,0,10.3422,10.3559,10.3796,10.3907,10.4018,10.4196,10.432,10.4452,10.4577,10.48,10.4906,10.5112,10.5284,10.5601,10.5752,10.595,10.5979,10.6069,10.6009,10.5976,10.5985,10.5976,10.5992,10.6079,10.608,10.6081,10.6082,0,10.3601,10.3663,10.3838,10.4038,10.4183,10.4347,10.4511,10.4597,10.4759,10.4896,10.5103,10.5236,10.55,10.5704,10.5917,10.6032,10.6086,10.61,10.6135,10.6107,10.6055,10.6088,10.5833,10.6093,10.6092,10.6091,10.6091,10.609,10.371,10.3836,10.4024,10.4217,10.4354,10.4507,10.4643,10.4772,10.4947,10.5172,10.5239,10.5455,10.5639,10.593,10.6049,10.6221,10.6214,10.6263,10.6277,10.6288,10.6289,10.6025,10.6259,10.6259,10.6259,10.6259,10.6259,0,10.3896,10.402,10.4196,10.4425,10.4577,10.4613,10.4798,10.4923,10.5112,10.5279,10.5447,10.5686,10.5886,10.6053,10.626,10.6366,10.6396,10.6416,10.6411,10.6438,10.6282,10.6233,10.6389,10.6389,10.6388,10.6388,10.6388,10.6388,10.401,10.4228,10.4312,10.46,10.4724,10.4936,10.5039,10.518,10.5315,10.5578,10.5745,10.5852,10.6021,10.6242,10.6427,10.6472,10.6545,10.6561,10.6611,10.6463,10.6448,10.6434,10.6389,10.6575,10.6575,10.6753,10.6755,10.6756]}]]